Time,TemperatureF,DewpointF,PressureIn,WindDirection,WindDirectionDegrees,WindSpeedMPH,WindSpeedGustMPH,Humidity,HourlyPrecipIn,Conditions,Clouds,dailyrainin,SoftwareType,DateUTC
2013-05-09 00:00:00,56.3,53.4,30.07,NW,313,0.0,0.0,90,0.00,,,0.00,Wunderground v.1.15,2013-05-09 04:00:00,
2013-05-09 00:02:00,56.3,53.4,30.07,NW,313,0.0,0.0,90,0.00,,,0.00,Wunderground v.1.15,2013-05-09 04:02:00,
2013-05-09 00:04:00,56.3,53.4,30.07,NW,313,0.0,0.0,90,0.00,,,0.00,Wunderground v.1.15,2013-05-09 04:04:00,
2013-05-09 00:06:00,56.2,53.0,30.07,NW,313,0.0,0.0,89,0.00,,,0.00,Wunderground v.1.15,2013-05-09 04:06:00,
2013-05-09 00:08:00,56.0,52.8,30.07,NW,313,0.0,0.0,89,0.00,,,0.00,Wunderground v.1.15,2013-05-09 04:08:00,
2013-05-09 00:14:00,55.3,52.1,30.07,NW,313,0.0,0.0,89,0.00,,,0.00,Wunderground v.1.15,2013-05-09 04:14:00,
2013-05-09 00:20:00,54.9,52.0,30.08,NW,313,0.0,0.0,90,0.00,,,0.00,Wunderground v.1.15,2013-05-09 04:20:00,
2013-05-09 00:26:00,54.7,52.1,30.07,NW,313,0.0,0.0,91,0.00,,,0.00,Wunderground v.1.15,2013-05-09 04:26:00,
2013-05-09 00:32:00,54.6,52.3,30.07,NW,313,0.0,0.0,92,0.00,,,0.00,Wunderground v.1.15,2013-05-09 04:32:00,
2013-05-09 00:38:00,54.6,52.6,30.07,NW,313,0.0,0.0,93,0.00,,,0.00,Wunderground v.1.15,2013-05-09 04:38:00,
2013-05-09 00:44:00,54.5,52.2,30.07,NW,313,0.0,0.0,92,0.00,,,0.00,Wunderground v.1.15,2013-05-09 04:44:00,
2013-05-09 00:50:00,54.1,51.8,30.07,NW,313,0.0,0.0,92,0.00,,,0.00,Wunderground v.1.15,2013-05-09 04:50:00,
2013-05-09 00:56:00,53.8,51.5,30.08,NW,313,0.0,0.0,92,0.00,,,0.00,Wunderground v.1.15,2013-05-09 04:56:00,
2013-05-09 01:02:00,53.7,51.7,30.07,NW,313,0.0,0.0,93,0.00,,,0.00,Wunderground v.1.15,2013-05-09 05:02:00,
2013-05-09 01:08:00,53.8,52.1,30.08,NW,313,0.0,0.0,94,0.00,,,0.00,Wunderground v.1.15,2013-05-09 05:08:00,
2013-05-09 01:14:00,53.9,52.2,30.08,NW,313,0.0,0.0,94,0.00,,,0.00,Wunderground v.1.15,2013-05-09 05:14:00,
2013-05-09 01:20:00,53.9,52.2,30.08,NW,313,0.0,0.0,94,0.00,,,0.00,Wunderground v.1.15,2013-05-09 05:20:00,
2013-05-09 01:26:00,53.8,52.1,30.08,NW,313,0.0,0.0,94,0.00,,,0.00,Wunderground v.1.15,2013-05-09 05:26:00,
2013-05-09 01:32:00,53.7,52.0,30.07,NW,313,0.0,0.0,94,0.00,,,0.00,Wunderground v.1.15,2013-05-09 05:32:00,
2013-05-09 01:38:00,53.6,51.9,30.08,NW,313,0.0,0.0,94,0.00,,,0.00,Wunderground v.1.15,2013-05-09 05:38:00,
2013-05-09 01:44:00,53.2,51.2,30.07,NW,313,0.0,0.0,93,0.00,,,0.00,Wunderground v.1.15,2013-05-09 05:44:00,
2013-05-09 01:50:00,52.9,51.2,30.07,NW,313,0.0,0.0,94,0.00,,,0.00,Wunderground v.1.15,2013-05-09 05:50:00,
2013-05-09 01:56:00,52.7,51.0,30.07,NW,313,0.0,0.0,94,0.00,,,0.00,Wunderground v.1.15,2013-05-09 05:56:00,
2013-05-09 02:02:00,52.5,50.8,30.07,NW,313,0.0,2.0,94,0.00,,,0.00,Wunderground v.1.15,2013-05-09 06:02:00,
2013-05-09 02:08:00,52.4,51.0,30.07,NW,313,0.0,2.0,95,0.00,,,0.00,Wunderground v.1.15,2013-05-09 06:08:00,
2013-05-09 02:14:00,52.3,50.9,30.07,NW,313,0.0,2.0,95,0.00,,,0.00,Wunderground v.1.15,2013-05-09 06:14:00,
2013-05-09 02:20:00,52.3,50.9,30.07,NW,313,0.0,0.0,95,0.00,,,0.00,Wunderground v.1.15,2013-05-09 06:20:00,
2013-05-09 02:30:00,51.8,50.1,30.07,NW,313,0.0,0.0,94,0.00,,,0.00,Wunderground v.1.15,2013-05-09 06:30:00,
2013-05-09 02:36:00,51.6,50.2,30.06,NW,313,0.0,0.0,95,0.00,,,0.00,Wunderground v.1.15,2013-05-09 06:36:00,
2013-05-09 02:42:00,51.8,50.4,30.06,NW,313,0.0,0.0,95,0.00,,,0.00,Wunderground v.1.15,2013-05-09 06:42:00,
2013-05-09 02:48:00,52.1,51.0,30.06,NW,313,0.0,0.0,96,0.00,,,0.00,Wunderground v.1.15,2013-05-09 06:48:00,
2013-05-09 02:54:00,51.9,50.5,30.06,NW,313,0.0,0.0,95,0.00,,,0.00,Wunderground v.1.15,2013-05-09 06:54:00,
2013-05-09 03:00:00,51.7,50.3,30.06,NW,313,0.0,0.0,95,0.00,,,0.00,Wunderground v.1.15,2013-05-09 07:00:00,
2013-05-09 03:06:00,51.8,50.7,30.06,NW,313,0.0,0.0,96,0.00,,,0.00,Wunderground v.1.15,2013-05-09 07:06:00,
2013-05-09 03:12:00,51.6,50.2,30.06,NW,313,0.0,0.0,95,0.00,,,0.00,Wunderground v.1.15,2013-05-09 07:12:00,
2013-05-09 03:18:00,51.6,50.5,30.05,NW,313,0.0,2.0,96,0.00,,,0.00,Wunderground v.1.15,2013-05-09 07:18:00,
2013-05-09 03:24:00,51.5,50.1,30.05,NW,313,0.0,2.0,95,0.00,,,0.00,Wunderground v.1.15,2013-05-09 07:24:00,
2013-05-09 03:30:00,51.6,50.5,30.06,NW,313,0.0,0.0,96,0.00,,,0.00,Wunderground v.1.15,2013-05-09 07:30:00,
2013-05-09 03:36:00,51.6,50.2,30.06,NW,313,0.0,0.0,95,0.00,,,0.00,Wunderground v.1.15,2013-05-09 07:36:00,
2013-05-09 03:42:00,51.5,50.1,30.06,NW,313,0.0,0.0,95,0.00,,,0.00,Wunderground v.1.15,2013-05-09 07:42:00,
2013-05-09 03:48:00,51.3,49.9,30.06,NW,313,0.0,0.0,95,0.00,,,0.00,Wunderground v.1.15,2013-05-09 07:48:00,
2013-05-09 03:54:00,51.0,49.6,30.06,NW,313,0.0,2.0,95,0.00,,,0.00,Wunderground v.1.15,2013-05-09 07:54:00,
2013-05-09 04:00:00,50.6,49.2,30.06,NW,313,0.0,0.0,95,0.00,,,0.00,Wunderground v.1.15,2013-05-09 08:00:00,
2013-05-09 04:06:00,50.1,48.4,30.06,NW,313,0.0,0.0,94,0.00,,,0.00,Wunderground v.1.15,2013-05-09 08:06:00,
2013-05-09 04:12:00,50.0,48.6,30.06,NW,313,0.0,1.0,95,0.00,,,0.00,Wunderground v.1.15,2013-05-09 08:12:00,
2013-05-09 04:18:00,50.1,48.7,30.06,NW,313,0.0,1.0,95,0.00,,,0.00,Wunderground v.1.15,2013-05-09 08:18:00,
2013-05-09 04:24:00,50.1,48.7,30.06,NW,313,0.0,1.0,95,0.00,,,0.00,Wunderground v.1.15,2013-05-09 08:24:00,
2013-05-09 04:30:00,49.9,48.5,30.06,NW,313,0.0,0.0,95,0.00,,,0.00,Wunderground v.1.15,2013-05-09 08:30:00,
2013-05-09 04:36:00,49.7,48.6,30.06,NW,313,0.0,0.0,96,0.00,,,0.00,Wunderground v.1.15,2013-05-09 08:36:00,
2013-05-09 04:42:00,49.4,48.0,30.07,NW,313,0.0,0.0,95,0.00,,,0.00,Wunderground v.1.15,2013-05-09 08:42:00,
2013-05-09 04:48:00,49.2,47.8,30.07,NW,313,0.0,0.0,95,0.00,,,0.00,Wunderground v.1.15,2013-05-09 08:48:00,
2013-05-09 04:54:00,49.1,48.0,30.07,NW,313,0.0,0.0,96,0.00,,,0.00,Wunderground v.1.15,2013-05-09 08:54:00,
2013-05-09 05:00:00,49.3,48.2,30.07,NW,313,0.0,0.0,96,0.00,,,0.00,Wunderground v.1.15,2013-05-09 09:00:00,
2013-05-09 05:06:00,49.6,48.5,30.07,NW,313,0.0,0.0,96,0.00,,,0.00,Wunderground v.1.15,2013-05-09 09:06:00,
2013-05-09 05:12:00,49.6,48.5,30.07,NW,313,0.0,0.0,96,0.00,,,0.00,Wunderground v.1.15,2013-05-09 09:12:00,
2013-05-09 05:18:00,49.6,48.5,30.08,NW,313,0.0,0.0,96,0.00,,,0.00,Wunderground v.1.15,2013-05-09 09:18:00,
2013-05-09 05:24:00,49.7,48.6,30.08,NW,313,0.0,0.0,96,0.00,,,0.00,Wunderground v.1.15,2013-05-09 09:24:00,
2013-05-09 05:30:00,49.9,49.1,30.08,NW,313,0.0,0.0,97,0.00,,,0.00,Wunderground v.1.15,2013-05-09 09:30:00,
2013-05-09 05:36:00,50.3,49.5,30.08,NW,313,0.0,2.0,97,0.00,,,0.00,Wunderground v.1.15,2013-05-09 09:36:00,
2013-05-09 05:42:00,50.5,49.7,30.09,NW,313,1.0,2.0,97,0.00,,,0.00,Wunderground v.1.15,2013-05-09 09:42:00,
2013-05-09 05:48:00,50.4,49.6,30.09,NW,304,3.0,4.0,97,0.00,,,0.00,Wunderground v.1.15,2013-05-09 09:48:00,
2013-05-09 05:54:00,50.3,49.5,30.09,NW,308,4.0,6.0,97,0.00,,,0.00,Wunderground v.1.15,2013-05-09 09:54:00,
2013-05-09 06:00:00,50.1,49.3,30.09,WNW,302,4.0,5.0,97,0.00,,,0.00,Wunderground v.1.15,2013-05-09 10:00:00,
2013-05-09 06:06:00,49.9,49.1,30.09,WNW,303,4.0,8.0,97,0.00,,,0.00,Wunderground v.1.15,2013-05-09 10:06:00,
2013-05-09 06:12:00,49.8,49.0,30.09,WNW,300,4.0,4.0,97,0.00,,,0.00,Wunderground v.1.15,2013-05-09 10:12:00,
2013-05-09 06:18:00,49.7,48.9,30.10,WNW,303,3.0,5.0,97,0.00,,,0.00,Wunderground v.1.15,2013-05-09 10:18:00,
2013-05-09 06:24:00,49.8,49.0,30.10,WNW,301,2.0,3.0,97,0.00,,,0.00,Wunderground v.1.15,2013-05-09 10:24:00,
2013-05-09 06:30:00,49.7,48.9,30.10,WNW,294,2.0,3.0,97,0.00,,,0.00,Wunderground v.1.15,2013-05-09 10:30:00,
2013-05-09 06:36:00,49.7,48.9,30.10,NW,310,3.0,4.0,97,0.00,,,0.00,Wunderground v.1.15,2013-05-09 10:36:00,
2013-05-09 06:42:00,49.8,49.0,30.10,NW,309,2.0,3.0,97,0.00,,,0.00,Wunderground v.1.15,2013-05-09 10:42:00,
2013-05-09 06:48:00,49.7,48.9,30.10,NW,309,0.0,3.0,97,0.00,,,0.00,Wunderground v.1.15,2013-05-09 10:48:00,
2013-05-09 06:54:00,49.7,48.9,30.10,NW,309,1.0,3.0,97,0.00,,,0.00,Wunderground v.1.15,2013-05-09 10:54:00,
2013-05-09 07:00:00,49.6,48.8,30.11,NW,307,2.0,3.0,97,0.00,,,0.00,Wunderground v.1.15,2013-05-09 11:00:00,
2013-05-09 07:06:00,49.5,48.7,30.11,NW,306,3.0,3.0,97,0.00,,,0.00,Wunderground v.1.15,2013-05-09 11:06:00,
2013-05-09 07:12:00,49.7,48.9,30.11,NW,306,2.0,3.0,97,0.00,,,0.00,Wunderground v.1.15,2013-05-09 11:12:00,
2013-05-09 07:18:00,49.9,49.1,30.11,NW,306,1.0,3.0,97,0.00,,,0.00,Wunderground v.1.15,2013-05-09 11:18:00,
2013-05-09 07:24:00,50.1,49.3,30.11,NW,306,1.0,3.0,97,0.00,,,0.00,Wunderground v.1.15,2013-05-09 11:24:00,
2013-05-09 07:30:00,50.1,49.3,30.11,NW,305,1.0,1.0,97,0.00,,,0.00,Wunderground v.1.15,2013-05-09 11:30:00,
2013-05-09 07:36:00,50.0,49.2,30.12,NW,305,1.0,1.0,97,0.00,,,0.00,Wunderground v.1.15,2013-05-09 11:36:00,
2013-05-09 07:42:00,49.9,49.1,30.11,NW,305,0.0,0.0,97,0.00,,,0.00,Wunderground v.1.15,2013-05-09 11:42:00,
2013-05-09 07:48:00,49.8,49.0,30.12,NW,305,1.0,4.0,97,0.00,,,0.00,Wunderground v.1.15,2013-05-09 11:48:00,
2013-05-09 07:54:00,49.9,49.1,30.12,NW,305,1.0,1.0,97,0.00,,,0.00,Wunderground v.1.15,2013-05-09 11:54:00,
2013-05-09 08:00:00,50.5,49.7,30.12,NW,305,0.0,0.0,97,0.00,,,0.00,Wunderground v.1.15,2013-05-09 12:00:00,
2013-05-09 08:06:00,50.9,50.4,30.12,NW,304,2.0,4.0,98,0.00,,,0.00,Wunderground v.1.15,2013-05-09 12:06:00,
2013-05-09 08:14:00,51.3,50.5,30.12,WNW,302,3.0,3.0,97,0.00,,,0.00,Wunderground v.1.15,2013-05-09 12:14:00,
2013-05-09 08:20:00,51.7,51.2,30.13,WNW,297,2.0,3.0,98,0.00,,,0.00,Wunderground v.1.15,2013-05-09 12:20:00,
2013-05-09 08:26:00,51.4,50.6,30.13,WNW,300,3.0,7.0,97,0.00,,,0.00,Wunderground v.1.15,2013-05-09 12:26:00,
2013-05-09 08:32:00,51.4,50.6,30.13,WNW,299,4.0,5.0,97,0.00,,,0.00,Wunderground v.1.15,2013-05-09 12:32:00,
2013-05-09 08:38:00,51.9,51.1,30.13,WNW,299,3.0,5.0,97,0.00,,,0.00,Wunderground v.1.15,2013-05-09 12:38:00,
2013-05-09 08:44:00,52.7,51.9,30.13,WNW,299,2.0,3.0,97,0.00,,,0.00,Wunderground v.1.15,2013-05-09 12:44:00,
2013-05-09 08:50:00,53.3,52.5,30.13,WNW,299,1.0,1.0,97,0.00,,,0.00,Wunderground v.1.15,2013-05-09 12:50:00,
2013-05-09 08:56:00,54.0,52.9,30.14,WNW,299,1.0,1.0,96,0.00,,,0.00,Wunderground v.1.15,2013-05-09 12:56:00,
2013-05-09 09:02:00,54.4,53.0,30.14,WNW,299,1.0,1.0,95,0.00,,,0.00,Wunderground v.1.15,2013-05-09 13:02:00,
2013-05-09 09:08:00,55.4,53.4,30.13,WNW,299,1.0,1.0,93,0.00,,,0.00,Wunderground v.1.15,2013-05-09 13:08:00,
2013-05-09 09:14:00,56.0,53.4,30.14,WNW,299,1.0,5.0,91,0.00,,,0.00,Wunderground v.1.15,2013-05-09 13:14:00,
2013-05-09 09:20:00,56.6,53.1,30.14,WNW,299,2.0,2.0,88,0.00,,,0.01,Wunderground v.1.15,2013-05-09 13:20:00,
2013-05-09 09:26:00,57.3,53.5,30.14,WNW,296,2.0,4.0,87,0.00,,,0.01,Wunderground v.1.15,2013-05-09 13:26:00,
2013-05-09 09:32:00,58.3,53.8,30.14,West,281,3.0,3.0,85,0.00,,,0.01,Wunderground v.1.15,2013-05-09 13:32:00,
2013-05-09 09:38:00,59.0,54.2,30.14,West,281,2.0,5.0,84,0.00,,,0.01,Wunderground v.1.15,2013-05-09 13:38:00,
2013-05-09 09:44:00,59.4,53.9,30.14,WNW,282,2.0,4.0,82,0.00,,,0.01,Wunderground v.1.15,2013-05-09 13:44:00,
2013-05-09 16:26:00,67.7,55.9,30.09,NE,49,5.0,8.0,66,0.00,,,0.03,Wunderground v.1.15,2013-05-09 20:26:00,
2013-05-09 16:32:00,68.2,56.0,30.09,ENE,59,3.0,4.0,65,0.00,,,0.03,Wunderground v.1.15,2013-05-09 20:32:00,
2013-05-09 16:38:00,68.3,55.2,30.08,ENE,60,2.0,4.0,63,0.00,,,0.03,Wunderground v.1.15,2013-05-09 20:38:00,
2013-05-09 16:44:00,69.2,55.2,30.08,ENE,60,1.0,3.0,61,0.00,,,0.03,Wunderground v.1.15,2013-05-09 20:44:00,
2013-05-09 16:50:00,69.5,55.9,30.08,NE,49,4.0,4.0,62,0.00,,,0.03,Wunderground v.1.15,2013-05-09 20:50:00,
2013-05-09 16:56:00,69.4,56.3,30.08,NE,50,3.0,4.0,63,0.00,,,0.03,Wunderground v.1.15,2013-05-09 20:56:00,
2013-05-09 17:02:00,69.8,55.7,30.08,ENE,57,1.0,2.0,61,0.00,,,0.03,Wunderground v.1.15,2013-05-09 21:02:00,
2013-05-09 17:08:00,70.2,55.7,30.08,ENE,61,1.0,3.0,60,0.00,,,0.03,Wunderground v.1.15,2013-05-09 21:08:00,
2013-05-09 17:14:00,70.6,56.0,30.08,ENE,76,1.0,4.0,60,0.00,,,0.03,Wunderground v.1.15,2013-05-09 21:14:00,
2013-05-09 17:20:00,70.7,55.7,30.08,ENE,78,2.0,2.0,59,0.00,,,0.03,Wunderground v.1.15,2013-05-09 21:20:00,
2013-05-09 17:26:00,71.1,57.0,30.08,East,100,1.0,6.0,61,0.00,,,0.03,Wunderground v.1.15,2013-05-09 21:26:00,
2013-05-09 17:32:00,71.2,56.6,30.07,ESE,111,2.0,2.0,60,0.00,,,0.03,Wunderground v.1.15,2013-05-09 21:32:00,
2013-05-09 17:38:00,71.2,55.7,30.07,ESE,111,1.0,4.0,58,0.00,,,0.03,Wunderground v.1.15,2013-05-09 21:38:00,
2013-05-09 17:44:00,71.4,55.9,30.08,ESE,111,1.0,3.0,58,0.00,,,0.03,Wunderground v.1.15,2013-05-09 21:44:00,
2013-05-09 17:50:00,71.6,54.6,30.08,ESE,112,1.0,1.0,55,0.00,,,0.03,Wunderground v.1.15,2013-05-09 21:50:00,
2013-05-09 17:56:00,71.7,55.2,30.07,ESE,121,2.0,4.0,56,0.00,,,0.03,Wunderground v.1.15,2013-05-09 21:56:00,
2013-05-09 18:02:00,71.9,56.3,30.07,SSE,163,4.0,5.0,58,0.00,,,0.03,Wunderground v.1.15,2013-05-09 22:02:00,
2013-05-09 18:08:00,72.1,56.5,30.08,SSE,164,5.0,5.0,58,0.00,,,0.03,Wunderground v.1.15,2013-05-09 22:08:00,
2013-05-09 18:14:00,71.9,55.8,30.07,SSE,161,5.0,5.0,57,0.00,,,0.03,Wunderground v.1.15,2013-05-09 22:14:00,
2013-05-09 18:20:00,71.5,55.0,30.08,SSE,154,6.0,6.0,56,0.00,,,0.03,Wunderground v.1.15,2013-05-09 22:20:00,
2013-05-09 18:26:00,71.2,55.7,30.08,SSE,161,5.0,7.0,58,0.00,,,0.03,Wunderground v.1.15,2013-05-09 22:26:00,
2013-05-09 18:32:00,71.0,55.5,30.07,South,169,4.0,5.0,58,0.00,,,0.03,Wunderground v.1.15,2013-05-09 22:32:00,
2013-05-09 18:38:00,70.7,56.1,30.07,SSE,162,4.0,8.0,60,0.00,,,0.03,Wunderground v.1.15,2013-05-09 22:38:00,
2013-05-09 18:44:00,70.4,56.8,30.07,South,171,5.0,8.0,62,0.00,,,0.03,Wunderground v.1.15,2013-05-09 22:44:00,
2013-05-09 18:50:00,70.1,56.9,30.07,South,172,5.0,5.0,63,0.00,,,0.03,Wunderground v.1.15,2013-05-09 22:50:00,
2013-05-09 18:56:00,69.8,56.6,30.07,South,178,3.0,5.0,63,0.00,,,0.03,Wunderground v.1.15,2013-05-09 22:56:00,
2013-05-09 19:02:00,69.4,56.3,30.07,South,175,4.0,7.0,63,0.00,,,0.03,Wunderground v.1.15,2013-05-09 23:02:00,
2013-05-09 19:08:00,69.1,56.4,30.07,South,172,5.0,7.0,64,0.00,,,0.03,Wunderground v.1.15,2013-05-09 23:08:00,
2013-05-09 19:14:00,69.0,56.3,30.07,South,172,3.0,5.0,64,0.00,,,0.03,Wunderground v.1.15,2013-05-09 23:14:00,
2013-05-09 19:20:00,68.8,56.6,30.07,South,172,2.0,3.0,65,0.00,,,0.03,Wunderground v.1.15,2013-05-09 23:20:00,
2013-05-09 19:26:00,68.5,56.3,30.07,South,172,2.0,3.0,65,0.00,,,0.03,Wunderground v.1.15,2013-05-09 23:26:00,
2013-05-09 19:32:00,68.3,56.5,30.07,South,171,2.0,4.0,66,0.00,,,0.03,Wunderground v.1.15,2013-05-09 23:32:00,
2013-05-09 19:38:00,68.1,56.7,30.07,South,171,2.0,4.0,67,0.00,,,0.03,Wunderground v.1.15,2013-05-09 23:38:00,
2013-05-09 19:44:00,68.0,56.6,30.08,South,171,1.0,1.0,67,0.00,,,0.03,Wunderground v.1.15,2013-05-09 23:44:00,
2013-05-09 19:50:00,67.9,56.9,30.08,South,171,0.0,0.0,68,0.00,,,0.03,Wunderground v.1.15,2013-05-09 23:50:00,
2013-05-09 19:56:00,67.8,56.4,30.08,South,172,0.0,0.0,67,0.00,,,0.03,Wunderground v.1.15,2013-05-09 23:56:00,
2013-05-09 20:02:00,67.7,56.8,30.08,South,172,0.0,0.0,68,0.00,,,0.03,Wunderground v.1.15,2013-05-10 00:02:00,
2013-05-09 20:08:00,67.5,56.6,30.08,South,172,0.0,0.0,68,0.00,,,0.03,Wunderground v.1.15,2013-05-10 00:08:00,
2013-05-09 20:14:00,67.2,57.1,30.08,South,172,0.0,0.0,70,0.00,,,0.03,Wunderground v.1.15,2013-05-10 00:14:00,
2013-05-09 20:20:00,66.9,56.8,30.08,South,172,0.0,0.0,70,0.00,,,0.03,Wunderground v.1.15,2013-05-10 00:20:00,
2013-05-09 20:26:00,66.6,56.9,30.08,South,172,0.0,0.0,71,0.00,,,0.03,Wunderground v.1.15,2013-05-10 00:26:00,
2013-05-09 20:32:00,66.2,56.9,30.08,South,172,0.0,0.0,72,0.00,,,0.03,Wunderground v.1.15,2013-05-10 00:32:00,
2013-05-09 20:38:00,65.9,57.0,30.09,South,172,0.0,0.0,73,0.00,,,0.03,Wunderground v.1.15,2013-05-10 00:38:00,
2013-05-09 20:44:00,65.6,57.5,30.09,South,172,0.0,0.0,75,0.00,,,0.03,Wunderground v.1.15,2013-05-10 00:44:00,
2013-05-09 20:50:00,65.0,57.2,30.09,South,172,0.0,0.0,76,0.00,,,0.03,Wunderground v.1.15,2013-05-10 00:50:00,
2013-05-09 20:56:00,64.4,57.0,30.09,South,172,0.0,0.0,77,0.00,,,0.03,Wunderground v.1.15,2013-05-10 00:56:00,
2013-05-09 21:02:00,63.9,56.9,30.09,South,172,0.0,0.0,78,0.00,,,0.03,Wunderground v.1.15,2013-05-10 01:02:00,
2013-05-09 21:08:00,63.5,56.9,30.09,South,172,0.0,0.0,79,0.00,,,0.03,Wunderground v.1.15,2013-05-10 01:08:00,
2013-05-09 21:14:00,62.9,57.0,30.09,South,172,0.0,0.0,81,0.00,,,0.03,Wunderground v.1.15,2013-05-10 01:14:00,
2013-05-09 21:20:00,62.4,56.8,30.09,South,172,0.0,0.0,82,0.00,,,0.03,Wunderground v.1.15,2013-05-10 01:20:00,
2013-05-09 21:26:00,62.1,56.9,30.10,South,172,0.0,0.0,83,0.00,,,0.03,Wunderground v.1.15,2013-05-10 01:26:00,
2013-05-09 21:32:00,61.8,56.6,30.11,South,172,0.0,0.0,83,0.00,,,0.03,Wunderground v.1.15,2013-05-10 01:32:00,
2013-05-09 21:38:00,61.6,56.0,30.11,South,172,0.0,0.0,82,0.00,,,0.03,Wunderground v.1.15,2013-05-10 01:38:00,
2013-05-09 21:44:00,61.4,55.9,30.11,South,172,0.0,0.0,82,0.00,,,0.03,Wunderground v.1.15,2013-05-10 01:44:00,
2013-05-09 21:50:00,61.1,55.9,30.12,South,172,0.0,0.0,83,0.00,,,0.03,Wunderground v.1.15,2013-05-10 01:50:00,
2013-05-09 21:56:00,60.9,55.7,30.12,South,172,0.0,0.0,83,0.00,,,0.03,Wunderground v.1.15,2013-05-10 01:56:00,
2013-05-09 22:02:00,60.4,55.5,30.12,South,172,0.0,0.0,84,0.00,,,0.03,Wunderground v.1.15,2013-05-10 02:02:00,
2013-05-09 22:08:00,60.1,55.6,30.12,South,172,0.0,0.0,85,0.00,,,0.03,Wunderground v.1.15,2013-05-10 02:08:00,
2013-05-09 22:14:00,59.8,55.6,30.12,South,172,0.0,0.0,86,0.00,,,0.03,Wunderground v.1.15,2013-05-10 02:14:00,
2013-05-09 22:20:00,59.5,55.6,30.12,South,172,0.0,0.0,87,0.00,,,0.03,Wunderground v.1.15,2013-05-10 02:20:00,
2013-05-09 22:26:00,59.1,55.5,30.12,South,172,0.0,0.0,88,0.00,,,0.03,Wunderground v.1.15,2013-05-10 02:26:00,
2013-05-09 22:32:00,58.8,55.3,30.11,South,172,0.0,0.0,88,0.00,,,0.03,Wunderground v.1.15,2013-05-10 02:32:00,
2013-05-09 22:38:00,58.7,55.5,30.11,South,172,0.0,0.0,89,0.00,,,0.03,Wunderground v.1.15,2013-05-10 02:38:00,
2013-05-09 22:44:00,58.5,55.6,30.11,South,172,0.0,0.0,90,0.00,,,0.03,Wunderground v.1.15,2013-05-10 02:44:00,
2013-05-09 22:50:00,58.3,55.4,30.11,South,172,0.0,0.0,90,0.00,,,0.03,Wunderground v.1.15,2013-05-10 02:50:00,
2013-05-09 22:56:00,58.0,55.1,30.11,South,172,0.0,0.0,90,0.00,,,0.03,Wunderground v.1.15,2013-05-10 02:56:00,
2013-05-09 23:02:00,57.8,55.2,30.11,South,172,0.0,0.0,91,0.00,,,0.03,Wunderground v.1.15,2013-05-10 03:02:00,
2013-05-09 23:08:00,57.7,55.4,30.11,South,172,0.0,0.0,92,0.00,,,0.03,Wunderground v.1.15,2013-05-10 03:08:00,
2013-05-09 23:14:00,57.6,55.3,30.11,South,172,0.0,0.0,92,0.00,,,0.03,Wunderground v.1.15,2013-05-10 03:14:00,
2013-05-09 23:20:00,57.3,54.7,30.11,South,172,0.0,0.0,91,0.00,,,0.03,Wunderground v.1.15,2013-05-10 03:20:00,
2013-05-09 23:26:00,57.1,54.8,30.11,South,172,0.0,0.0,92,0.00,,,0.03,Wunderground v.1.15,2013-05-10 03:26:00,
2013-05-09 23:32:00,56.8,54.5,30.10,South,172,0.0,0.0,92,0.00,,,0.03,Wunderground v.1.15,2013-05-10 03:32:00,
2013-05-09 23:38:00,56.6,54.3,30.10,South,172,0.0,0.0,92,0.00,,,0.03,Wunderground v.1.15,2013-05-10 03:38:00,
2013-05-09 23:44:00,56.4,54.1,30.11,South,172,0.0,0.0,92,0.00,,,0.03,Wunderground v.1.15,2013-05-10 03:44:00,
2013-05-09 23:50:00,55.9,53.6,30.11,South,172,0.0,0.0,92,0.00,,,0.03,Wunderground v.1.15,2013-05-10 03:50:00,
2013-05-09 23:56:00,55.7,53.7,30.11,South,172,0.0,0.0,93,0.00,,,0.03,Wunderground v.1.15,2013-05-10 03:56:00,